Location: Balsareny
(41.8670°N, 1.8830°E)
Time: 00:55:10
(UTC+01:00)

ISS - Pass Details

Date: 07 December 2021
Orbit: 413 x 422 km, 51.6° (Epoch: 25 January)

Event Time Altitude Azimuth Distance (km) Brightness Sun altitude
Rises 18:38:38 0° 302° (WNW) 2,383 0.7 -13.9°
Reaches altitude 10° 18:40:46 10° 299° (WNW) 1,513 -0.3 -14.3°
Maximum altitude 18:44:07 59° 219° (SW) 491 -3.2 -14.9°
Enters shadow 18:47:24 10° 139° (SE) 1,484 -1.2 -15.5°
